Hourly Data Report for October 08, 2016

All times are specified in Local Standard Time (LST). Add 1 hour to adjust for Daylight Saving Time where and when it is observed.

RESOLUTE BAY A
NUNAVUT

74°43'01.000" N
94°58'10.000" W
67.70 m
2403498
71924
YRB

Download Data

Hourly Data (October 2016)
Hourly Data Report for October 8, 2016
Temp Definition
°C
Dew Point Temp Definition
°C
Rel Hum Definition
%
Wind Dir Definition
10's deg

Wind Spd Definition
km/h
Visibility Definition
km
Stn Press Definition
kPa
Hmdx Definition


Wind Chill Definition


Weather Definition


TIME
00:00 Legend Double Dagger -4.9 -5.9 93 24 26 24.1 100.94   -12 Snow
01:00 Legend Double Dagger -5.8 -6.9 92 24 25 14.5 100.91   -13 Snow
02:00 Legend Double Dagger -6.3 -7.5 91 24 21 24.1 100.88   -13 Snow
03:00 Legend Double Dagger -6.0 -7.1 92 22 21 24.1 100.81   -13 Cloudy
04:00 Legend Double Dagger -5.6 -6.4 94 21 19 16.1 100.74   -12 Snow
05:00 Legend Double Dagger -5.2 -6.3 92 21 27 16.1 100.67   -13 Snow
06:00 Legend Double Dagger -4.8 -5.8 93 21 26 16.1 100.61   -12 Snow
07:00 Legend Double Dagger -4.3 -5.3 93 22 22 12.9 100.53   -11 Snow
08:00 Legend Double Dagger -3.9 -4.7 94 26 22 4.8 100.48   -10 Snow,Fog
09:00 Legend Double Dagger -4.6 -5.6 93 29 29 9.7 100.47   -12 Snow
10:00 Legend Double Dagger -7.1 -9.1 86 31 30 24.1 100.49   -16 LegendNANA
11:00 Legend Double Dagger -8.1 -10.2 85 30 30 24.1 100.48   -17 LegendNANA
12:00 Legend Double Dagger -9.6 -11.8 84 31 33 24.1 100.46   -19 Mostly Cloudy
13:00 Legend Double Dagger -10.1 -12.8 81 30 28 16.1 100.46   -19 Snow Showers
14:00 Legend Double Dagger -10.7 -13.2 82 31 27 12.9 100.41   -20 Snow Showers
15:00 Legend Double Dagger -10.6 -13.3 81 30 30 16.1 100.38   -20 Snow Showers
16:00 Legend Double Dagger -11.0 -13.7 81 31 27 19.3 100.36   -20 Snow
17:00 Legend Double Dagger -11.6 -13.9 83 33 26 19.3 100.38   -21 Snow
18:00 Legend Double Dagger -11.9 -14.4 82 34 27 19.3 100.36   -22 Snow
19:00 Legend Double Dagger -12.1 -14.7 81 33 26 24.1 100.32   -22 LegendNANA
20:00 Legend Double Dagger -12.0 -14.6 81 32 28 24.1 100.26   -22 LegendNANA
21:00 Legend Double Dagger -11.6 -14.1 82 32 27 24.1 100.21   -21 Snow
22:00 Legend Double Dagger -11.2 -13.5 83 32 26 24.1 100.14   -20 Snow
23:00 Legend Double Dagger -11.1 -13.3 84 33 33 8.1 100.11   -21 Snow

Notes on Data Quality.

Legend

  • E = Estimated
  • M = Missing
  • NA = Not Available
  • ‡ = Partner data that is not subject to review by the National Climate Archives
Date modified: